| time (UTC) | temp F | wind direction | speed knots | gust knots | rain 1hr in | rain 24hr in | rain mn in | humidity % | barometer mb |
| 20260509212049 | 56 | 221 | 0.0 | 2.6 | 0.00 | 0.00 | 0.00 | 53 | 1019.7 |
| 20260509211036 | 56 | 197 | 0.9 | 1.7 | 0.00 | 0.00 | 0.00 | 53 | 1019.7 |
| 20260509210022 | 56 | 181 | 0.9 | 3.5 | 0.00 | 0.00 | 0.00 | 54 | 1019.7 |
| 20260509205110 | 56 | 186 | 0.9 | 1.7 | 0.00 | 0.00 | 0.00 | 55 | 1019.7 |
| 20260509204055 | 55 | 207 | 0.0 | 1.7 | 0.00 | 0.00 | 0.00 | 56 | 1019.6 |
| 20260509203039 | 55 | 0.0 | 2.6 | 0.00 | 0.00 | 0.00 | 57 | 1019.6 | |
| 20260509202024 | 54 | 207 | 0.9 | 1.7 | 0.00 | 0.00 | 0.00 | 59 | 1019.8 |
| 20260509201112 | 54 | 187 | 0.9 | 1.7 | 0.00 | 0.00 | 0.00 | 60 | 1019.8 |
| 20260509200058 | 54 | 172 | 0.0 | 1.7 | 0.00 | 0.00 | 0.00 | 62 | 1020.0 |
| 20260509195046 | 54 | 222 | 0.9 | 1.7 | 0.00 | 0.00 | 0.00 | 63 | 1020.0 |
| 20260509194052 | 54 | 221 | 1.7 | 1.7 | 0.00 | 0.00 | 0.00 | 61 | 1020.0 |
| 20260509193131 | 54 | 219 | 0.9 | 1.7 | 0.00 | 0.00 | 0.00 | 62 | 1020.2 |
| 20260509192052 | 55 | 217 | 0.9 | 1.7 | 0.00 | 0.00 | 0.00 | 61 | 1020.2 |
| 20260509191039 | 54 | 214 | 0.9 | 1.7 | 0.00 | 0.00 | 0.00 | 61 | 1020.3 |
| 20260509190027 | 54 | 216 | 0.9 | 1.7 | 0.00 | 0.00 | 0.00 | 63 | 1020.2 |
| 20260509185110 | 54 | 224 | 0.9 | 1.7 | 0.00 | 0.00 | 0.00 | 64 | 1020.1 |
| 20260509184114 | 55 | 209 | 0.9 | 1.7 | 0.00 | 0.00 | 0.00 | 64 | 1020.4 |
| 20260509183030 | 55 | 228 | 0.9 | 1.7 | 0.00 | 0.00 | 0.00 | 64 | 1020.1 |
| 20260509182113 | 55 | 207 | 0.9 | 1.7 | 0.00 | 0.00 | 0.00 | 64 | 1020.3 |
| 20260509181055 | 55 | 213 | 0.0 | 1.7 | 0.00 | 0.00 | 0.00 | 64 | 1020.3 |
| 20260509180034 | 55 | 212 | 0.9 | 1.7 | 0.00 | 0.00 | 0.00 | 63 | 1020.3 |
| 20260509175116 | 56 | 202 | 0.9 | 1.7 | 0.00 | 0.00 | 0.00 | 62 | 1020.0 |
| 20260509174053 | 56 | 216 | 0.9 | 1.7 | 0.00 | 0.00 | 0.00 | 62 | 1020.0 |
| 20260509173036 | 55 | 214 | 0.9 | 1.7 | 0.00 | 0.00 | 0.00 | 62 | 1020.0 |
| 20260509172119 | 56 | 226 | 0.0 | 1.7 | 0.00 | 0.00 | 0.00 | 63 | 1019.9 |
| 20260509171058 | 56 | 153 | 0.0 | 1.7 | 0.00 | 0.00 | 0.00 | 62 | 1019.7 |
| 20260509170039 | 55 | 231 | 0.0 | 0.9 | 0.00 | 0.00 | 0.00 | 60 | 1019.5 |
| 20260509165017 | 56 | 229 | 0.9 | 1.7 | 0.00 | 0.00 | 0.00 | 61 | 1019.5 |
| 20260509164059 | 56 | 213 | 0.0 | 1.7 | 0.00 | 0.00 | 0.00 | 59 | 1019.5 |
| 20260509163037 | 57 | 231 | 0.0 | 1.7 | 0.00 | 0.00 | 0.00 | 56 | 1019.4 |
| 20260509162020 | 58 | 214 | 0.9 | 1.7 | 0.00 | 0.00 | 0.00 | 55 | 1019.3 |
| 20260509161103 | 58 | 228 | 0.9 | 1.7 | 0.00 | 0.00 | 0.00 | 54 | 1019.3 |
| 20260509160041 | 58 | 249 | 0.0 | 1.7 | 0.00 | 0.00 | 0.00 | 54 | 1019.3 |
| 20260509155022 | 59 | 242 | 0.0 | 0.9 | 0.00 | 0.00 | 0.00 | 50 | 1019.3 |
| 20260509154121 | 61 | 231 | 0.9 | 1.7 | 0.00 | 0.00 | 0.00 | 51 | 1019.2 |
| 20260509153044 | 62 | 240 | 0.0 | 0.9 | 0.00 | 0.00 | 0.00 | 48 | 1019.2 |
| 20260509152032 | 63 | 0.0 | 1.7 | 0.00 | 0.00 | 0.00 | 48 | 1019.1 | |
| 20260509151116 | 63 | 262 | 0.0 | 1.7 | 0.00 | 0.00 | 0.00 | 46 | 1019.1 |
| 20260509150059 | 64 | 314 | 0.0 | 0.9 | 0.00 | 0.00 | 0.00 | 45 | 1019.0 |
| 20260509145106 | 65 | 0.0 | 0.9 | 0.00 | 0.00 | 0.00 | 43 | 1019.0 | |
| 20260509144024 | 66 | 218 | 0.0 | 1.7 | 0.00 | 0.00 | 0.00 | 42 | 1019.0 |
| 20260509143112 | 67 | 241 | 0.0 | 1.7 | 0.00 | 0.00 | 0.00 | 40 | 1019.0 |
| 20260509142053 | 67 | 354 | 0.9 | 2.6 | 0.00 | 0.00 | 0.00 | 39 | 1019.1 |
| 20260509141113 | 67 | 318 | 0.9 | 2.6 | 0.00 | 0.00 | 0.00 | 39 | 1019.0 |
| 20260509140022 | 68 | 331 | 0.0 | 2.6 | 0.00 | 0.00 | 0.00 | 38 | 1019.1 |
| 20260509135110 | 68 | 357 | 1.7 | 2.6 | 0.00 | 0.00 | 0.00 | 37 | 1019.0 |
| 20260509134113 | 70 | 5 | 1.7 | 4.3 | 0.00 | 0.00 | 0.00 | 37 | 1019.0 |
| 20260509133040 | 72 | 357 | 0.9 | 2.6 | 0.00 | 0.00 | 0.00 | 34 | 1019.1 |
| 20260509132026 | 72 | 4 | 1.7 | 3.5 | 0.00 | 0.00 | 0.00 | 34 | 1019.0 |
| 20260509131113 | 72 | 305 | 1.7 | 4.3 | 0.00 | 0.00 | 0.00 | 34 | 1019.2 |
| 20260509130053 | 71 | 354 | 0.9 | 2.6 | 0.00 | 0.00 | 0.00 | 35 | 1019.1 |
| 20260509125038 | 71 | 339 | 0.9 | 7.0 | 0.00 | 0.00 | 0.00 | 35 | 1019.2 |
| 20260509124037 | 72 | 339 | 0.9 | 4.3 | 0.00 | 0.00 | 0.00 | 34 | 1019.3 |
| 20260509123100 | 71 | 339 | 0.9 | 2.6 | 0.00 | 0.00 | 0.00 | 34 | 1019.3 |
| 20260509122042 | 71 | 359 | 0.9 | 3.5 | 0.00 | 0.00 | 0.00 | 35 | 1019.5 |
| 20260509121030 | 71 | 337 | 1.7 | 3.5 | 0.00 | 0.00 | 0.00 | 35 | 1019.6 |
| 20260509120138 | 71 | 306 | 0.9 | 2.6 | 0.00 | 0.00 | 0.00 | 36 | 1019.7 |
| 20260509115104 | 71 | 349 | 0.9 | 2.6 | 0.00 | 0.00 | 0.00 | 35 | 1019.8 |
| 20260509114106 | 71 | 327 | 1.7 | 4.3 | 0.00 | 0.00 | 0.00 | 35 | 1019.9 |
| 20260509113030 | 72 | 352 | 1.7 | 4.3 | 0.00 | 0.00 | 0.00 | 33 | 1020.0 |
| 20260509112111 | 71 | 341 | 0.9 | 2.6 | 0.00 | 0.00 | 0.00 | 34 | 1020.1 |
| 20260509111048 | 69 | 340 | 1.7 | 3.5 | 0.00 | 0.00 | 0.00 | 35 | 1020.2 |
| 20260509110031 | 70 | 345 | 1.7 | 2.6 | 0.00 | 0.00 | 0.00 | 33 | 1020.3 |
| 20260509105130 | 70 | 333 | 0.9 | 3.5 | 0.00 | 0.00 | 0.00 | 36 | 1020.5 |
| 20260509104113 | 69 | 351 | 1.7 | 3.5 | 0.00 | 0.00 | 0.00 | 36 | 1020.7 |
| 20260509103039 | 68 | 354 | 1.7 | 2.6 | 0.00 | 0.00 | 0.00 | 36 | 1020.8 |
| 20260509102045 | 69 | 350 | 1.7 | 3.5 | 0.00 | 0.00 | 0.00 | 36 | 1021.0 |
| 20260509101105 | 68 | 332 | 0.9 | 3.5 | 0.00 | 0.00 | 0.00 | 37 | 1021.2 |
| 20260509100046 | 67 | 320 | 1.7 | 3.5 | 0.00 | 0.00 | 0.00 | 38 | 1021.4 |
| 20260509095024 | 67 | 343 | 1.7 | 3.5 | 0.00 | 0.00 | 0.00 | 38 | 1021.7 |
| 20260509094108 | 67 | 43 | 1.7 | 4.3 | 0.00 | 0.00 | 0.00 | 38 | 1021.8 |
| 20260509093110 | 67 | 329 | 0.9 | 4.3 | 0.00 | 0.00 | 0.00 | 40 | 1021.9 |
| 20260509092031 | 67 | 197 | 1.7 | 4.3 | 0.00 | 0.00 | 0.00 | 42 | 1022.2 |
| 20260509091118 | 66 | 308 | 1.7 | 2.6 | 0.00 | 0.00 | 0.00 | 42 | 1022.3 |
| 20260509085049 | 66 | 212 | 0.9 | 3.5 | 0.00 | 0.00 | 0.00 | 42 | 1022.5 |
| 20260509084035 | 64 | 326 | 0.9 | 2.6 | 0.00 | 0.00 | 0.00 | 44 | 1022.6 |
| 20260509083121 | 64 | 347 | 0.9 | 2.6 | 0.00 | 0.00 | 0.00 | 47 | 1022.8 |
| 20260509082058 | 64 | 9 | 0.9 | 3.5 | 0.00 | 0.00 | 0.00 | 45 | 1022.7 |
| 20260509081035 | 63 | 207 | 1.7 | 3.5 | 0.00 | 0.00 | 0.00 | 48 | 1022.9 |
| 20260509080017 | 62 | 76 | 0.9 | 3.5 | 0.00 | 0.00 | 0.00 | 50 | 1023.1 |
| 20260509075103 | 61 | 313 | 0.9 | 1.7 | 0.00 | 0.00 | 0.00 | 51 | 1023.2 |
| 20260509074050 | 60 | 0.0 | 1.7 | 0.00 | 0.00 | 0.00 | 51 | 1023.1 | |
| 20260509073035 | 59 | 231 | 0.9 | 2.6 | 0.00 | 0.00 | 0.00 | 54 | 1023.2 |
| 20260509072022 | 59 | 239 | 1.7 | 2.6 | 0.00 | 0.00 | 0.00 | 54 | 1023.2 |
| 20260509071100 | 58 | 267 | 0.9 | 3.5 | 0.00 | 0.00 | 0.00 | 54 | 1022.9 |
| 20260509070038 | 57 | 260 | 0.0 | 3.5 | 0.00 | 0.00 | 0.00 | 56 | 1022.8 |
| 20260509065020 | 57 | 184 | 0.0 | 2.6 | 0.00 | 0.00 | 0.00 | 54 | 1022.6 |
| 20260509064106 | 55 | 195 | 0.0 | 3.5 | 0.00 | 0.00 | 0.00 | 58 | 1022.5 |
| 20260509063036 | 53 | 302 | 0.0 | 1.7 | 0.00 | 0.00 | 0.00 | 63 | 1022.3 |
| 20260509062028 | 51 | 221 | 0.9 | 2.6 | 0.00 | 0.00 | 0.00 | 67 | 1022.1 |
| 20260509061110 | 50 | 224 | 1.7 | 2.6 | 0.00 | 0.00 | 0.00 | 68 | 1021.9 |
| 20260509060052 | 48 | 172 | 0.9 | 3.5 | 0.00 | 0.00 | 0.00 | 74 | 1021.9 |
| 20260509055029 | 45 | 205 | 0.9 | 2.6 | 0.00 | 0.00 | 0.00 | 83 | 1021.9 |
| 20260509054114 | 44 | 231 | 1.7 | 2.6 | 0.00 | 0.00 | 0.00 | 87 | 1021.8 |
| 20260509053057 | 43 | 206 | 0.9 | 0.9 | 0.00 | 0.00 | 0.00 | 88 | 1021.7 |